K2CCS Weather Reports


time (UTC)temp
C
wind
direction
speed
KPH
gust
KPH
rain 1hr
cm
rain 24hr
cm
rain mn
cm
humidity
%
barometer
mb
20260504110433 8 160 3.2 3.2 0.00 0.00 0.00 68 1013.6
20260504100349 7 155 1.6 1.6 0.00 0.00 0.00 72 1013.5
20260504081743 8 168 1.6 1.6 0.00 0.00 0.00 75 1014.1
20260504081239 8 164 0.0 0.0 0.00 0.00 0.00 74 1014.1
20260504080736 8 159 1.6 1.6 0.00 0.00 0.00 74 1013.8
20260504080232 8 161 0.0 0.0 0.00 0.00 0.00 74 1013.7
20260504070200 8 157 1.6 1.6 0.00 0.00 0.00 72 1014.0
20260504060120 8 158 1.6 1.6 0.00 0.00 0.00 71 1014.4
20260504050548 8 152 1.6 1.6 0.00 0.00 0.00 70 1014.3
20260504045542 8 164 0.0 0.0 0.00 0.00 0.00 70 1014.4
20260504045037 8 158 0.0 1.6 0.00 0.00 0.00 70 1014.2
20260504044535 8 150 1.6 1.6 0.00 0.00 0.00 70 1014.5
20260504044032 8 166 0.0 0.0 0.00 0.00 0.00 70 1014.4
20260504043529 8 167 0.0 1.6 0.00 0.00 0.00 70 1014.9
20260504043026 8 162 0.0 0.0 0.00 0.00 0.00 69 1014.6
20260504042523 8 198 3.2 3.2 0.00 0.00 0.00 69 1014.8
20260504042020 8 198 1.6 3.2 0.00 0.00 0.00 69 1014.7
20260504041516 8 168 3.2 3.2 0.00 0.00 0.00 69 1014.7
20260504041012 8 170 1.6 1.6 0.00 0.00 0.00 69 1014.7
20260504040510 8 171 1.6 1.6 0.00 0.00 0.00 68 1014.6
20260504040006 8 170 1.6 1.6 0.00 0.00 0.00 67 1014.6
20260504035503 8 197 1.6 1.6 0.00 0.00 0.00 66 1014.7
20260504034959 8 178 1.6 3.2 0.00 0.00 0.00 66 1014.8
20260504034457 8 188 1.6 1.6 0.00 0.00 0.00 65 1014.8
20260504033954 8 165 0.0 0.0 0.00 0.00 0.00 64 1014.7
20260504033452 8 160 0.0 0.0 0.00 0.00 0.00 64 1014.8
20260504032949 8 167 0.0 0.0 0.00 0.00 0.00 63 1014.7
20260504032446 8 169 0.0 1.6 0.00 0.00 0.00 61 1014.8
20260504031942 8 165 0.0 0.0 0.00 0.00 0.00 59 1014.6
20260504031439 8 174 1.6 1.6 0.00 0.00 0.00 58 1014.6
20260504030936 8 167 1.6 1.6 0.00 0.00 0.00 57 1014.7
20260504030433 8 168 0.0 0.0 0.00 0.00 0.00 56 1014.7
20260504025929 8 171 0.0 1.6 0.00 0.00 0.00 55 1014.5
20260504025426 8 177 1.6 1.6 0.00 0.00 0.00 54 1014.5
20260504024923 8 171 0.0 1.6 0.00 0.00 0.00 55 1014.4
20260504024420 8 204 3.2 3.2 0.00 0.00 0.00 54 1014.6
20260504023917 8 168 1.6 3.2 0.00 0.00 0.00 53 1014.3
20260504023413 8 173 1.6 1.6 0.00 0.00 0.00 52 1014.4
20260504022909 8 167 0.0 0.0 0.00 0.00 0.00 52 1014.5
20260504022406 8 173 1.6 1.6 0.00 0.00 0.00 51 1014.5
20260504021902 8 170 0.0 0.0 0.00 0.00 0.00 51 1014.5
20260504021400 8 170 1.6 1.6 0.00 0.00 0.00 50 1014.4
20260504020857 8 170 0.0 0.0 0.00 0.00 0.00 49 1014.3
20260504020353 8 170 0.0 0.0 0.00 0.00 0.00 49 1014.5
20260504015849 8 170 0.0 0.0 0.00 0.00 0.00 48 1014.4
20260504015346 8 170 0.0 0.0 0.00 0.00 0.00 47 1014.5
20260504014842 8 171 0.0 0.0 0.00 0.00 0.00 46 1014.5
20260504014338 8 171 0.0 0.0 0.00 0.00 0.00 45 1014.5
20260504013836 8 171 1.6 1.6 0.00 0.00 0.00 46 1014.5
20260504013334 8 170 0.0 0.0 0.00 0.00 0.00 45 1014.5
20260504012830 9 170 0.0 0.0 0.00 0.00 0.00 44 1014.4
20260504012328 9 170 0.0 1.6 0.00 0.00 0.00 43 1014.4
20260504011825 10 173 1.6 1.6 0.00 0.00 0.00 43 1014.3
20260504011321 10 179 1.6 3.2 0.00 0.00 0.00 42 1014.4
20260504010817 10 171 0.0 1.6 0.00 0.00 0.00 41 1014.4
20260504010313 10 174 0.0 1.6 0.00 0.00 0.00 41 1014.2
20260504005810 10 179 3.2 3.2 0.00 0.00 0.00 40 1014.0
20260504005307 10 157 1.6 1.6 0.00 0.00 0.00 40 1014.1
20260504004805 10 171 4.8 8.0 0.00 0.00 0.00 40 1013.9
20260504004302 10 192 1.6 3.2 0.00 0.00 0.00 40 1013.9
20260504003758 10 166 0.0 0.0 0.00 0.00 0.00 40 1013.9
20260504003255 10 206 3.2 3.2 0.00 0.00 0.00 39 1013.7
20260504002752 10 188 1.6 1.6 0.00 0.00 0.00 39 1013.5
20260504002249 10 173 0.0 1.6 0.00 0.00 0.00 39 1013.8
20260504001746 11 165 0.0 0.0 0.00 0.00 0.00 38 1013.4
20260504001243 11 170 1.6 1.6 0.00 0.00 0.00 37 1013.4
20260504000740 11 190 6.4 8.0 0.00 0.00 0.00 37 1013.3
20260504000237 11 328 1.6 1.6 0.00 0.00 0.00 36 1013.3
20260503235735 11 192 4.8 4.8 0.00 0.00 0.00 36 1013.2
20260503235232 11 173 1.6 1.6 0.00 0.00 0.00 35 1013.2
20260503234730 11 243 8.0 9.7 0.00 0.00 0.00 35 1012.9
20260503234228 12 218 8.0 12.9 0.00 0.00 0.00 34 1013.0
20260503233725 12 330 9.7 14.5 0.00 0.00 0.00 34 1012.8
20260503233220 12 5 11.3 16.1 0.00 0.00 0.00 33 1012.9
20260503232717 12 126 4.8 4.8 0.00 0.00 0.00 32 1012.8
20260503232214 12 220 3.2 4.8 0.00 0.00 0.00 31 1012.6
20260503231713 12 189 4.8 4.8 0.00 0.00 0.00 30 1012.6
20260503231209 13 259 4.8 8.0 0.00 0.00 0.00 29 1012.8
20260503230705 13 229 9.7 11.3 0.00 0.00 0.00 28 1012.3
20260503230203 13 228 3.2 4.8 0.00 0.00 0.00 27 1012.5
20260503225700 14 162 4.8 8.0 0.00 0.00 0.00 27 1012.3
20260503225200 13 211 3.2 3.2 0.00 0.00 0.00 27 1012.1
20260503224658 13 62 0.0 1.6 0.00 0.00 0.00 26 1012.0
20260503224155 14 189 11.3 12.9 0.00 0.00 0.00 26 1012.0
20260503223653 13 201 1.6 3.2 0.00 0.00 0.00 27 1012.2
20260503223149 14 233 6.4 14.5 0.00 0.00 0.00 27 1012.1
20260503222646 13 218 4.8 8.0 0.00 0.00 0.00 27 1012.0
20260503222144 14 169 3.2 3.2 0.00 0.00 0.00 27 1012.0
20260503221642 15 100 3.2 3.2 0.00 0.00 0.00 28 1012.0
20260503221139 15 185 1.6 1.6 0.00 0.00 0.00 29 1012.2
20260503220636 14 209 3.2 3.2 0.00 0.00 0.00 29 1011.9
20260503220132 14 164 1.6 1.6 0.00 0.00 0.00 30 1012.0
20260503215630 13 199 3.2 3.2 0.00 0.00 0.00 30 1012.3
20260503215126 13 238 6.4 9.7 0.00 0.00 0.00 30 1012.2
20260503214625 13 130 4.8 4.8 0.00 0.00 0.00 31 1012.1
20260503214120 15 2 6.4 8.0 0.00 0.00 0.00 30 1012.2
20260503213615 14 335 4.8 8.0 0.00 0.00 0.00 31 1012.2
20260503213110 15 307 1.6 8.0 0.00 0.00 0.00 32 1012.1
20260503212608 13 179 1.6 1.6 0.00 0.00 0.00 31 1012.0
20260503212105 13 203 3.2 3.2 0.00 0.00 0.00 32 1012.4
20260503211603 13 217 3.2 4.8 0.00 0.00 0.00 33 1012.3
20260503211058 12 243 4.8 8.0 0.00 0.00 0.00 33 1012.3
20260503210555 12 231 4.8 4.8 0.00 0.00 0.00 33 1012.5
20260503210050 12 230 8.0 11.3 0.00 0.00 0.00 33 1012.4
20260503205547 13 216 4.8 4.8 0.00 0.00 0.00 33 1012.2
20260503205044 13 172 3.2 3.2 0.00 0.00 0.00 33 1012.6
20260503204541 13 195 4.8 4.8 0.00 0.00 0.00 33 1012.5
20260503204038 13 202 8.0 11.3 0.00 0.00 0.00 33 1012.5
20260503203535 13 166 4.8 9.7 0.00 0.00 0.00 32 1012.5
20260503203032 13 222 6.4 12.9 0.00 0.00 0.00 34 1012.5
20260503202530 13 281 4.8 8.0 0.00 0.00 0.00 34 1012.5
20260503202028 12 339 1.6 3.2 0.00 0.00 0.00 35 1012.5
20260503201526 12 155 3.2 3.2 0.00 0.00 0.00 37 1012.8
20260503201023 11 279 0.0 1.6 0.00 0.00 0.00 38 1012.9
20260503200519 12 145 6.4 9.7 0.00 0.00 0.00 36 1013.0
20260503200015 12 202 4.8 4.8 0.00 0.00 0.00 36 1012.9
20260503195513 12 165 4.8 4.8 0.00 0.00 0.00 36 1012.9
20260503195009 12 158 4.8 9.7 0.00 0.00 0.00 37 1013.1
20260503194507 12 291 4.8 8.0 0.00 0.00 0.00 36 1013.1
20260503194006 12 178 3.2 4.8 0.00 0.00 0.00 37 1013.1
20260503193503 12 167 4.8 8.0 0.00 0.00 0.00 37 1013.1
20260503192958 12 237 3.2 3.2 0.00 0.00 0.00 37 1013.1
20260503192455 11 240 3.2 4.8 0.00 0.00 0.00 38 1013.2
20260503191950 11 177 1.6 3.2 0.00 0.00 0.00 39 1013.4
20260503191448 11 157 4.8 8.0 0.00 0.00 0.00 38 1013.6
20260503190944 11 113 4.8 8.0 0.00 0.00 0.00 38 1013.6
20260503190442 11 175 3.2 3.2 0.00 0.00 0.00 39 1013.5
20260503185939 11 183 3.2 3.2 0.00 0.00 0.00 38 1013.8
20260503185435 11 213 3.2 4.8 0.00 0.00 0.00 39 1013.6
20260503184934 11 145 4.8 4.8 0.00 0.00 0.00 40 1013.7
20260503184431 11 166 1.6 1.6 0.00 0.00 0.00 41 1013.8
20260503183927 11 201 3.2 3.2 0.00 0.00 0.00 40 1013.6
20260503183424 11 304 9.7 11.3 0.00 0.00 0.00 40 1013.6
20260503182921 11 152 1.6 1.6 0.00 0.00 0.00 41 1013.7
20260503182420 11 223 3.2 4.8 0.00 0.00 0.00 41 1013.7
20260503181917 10 206 6.4 8.0 0.00 0.00 0.00 40 1013.9
20260503181414 10 192 6.4 9.7 0.00 0.00 0.00 41 1014.2
20260503180910 10 167 1.6 3.2 0.00 0.00 0.00 42 1014.1
20260503180409 10 160 3.2 3.2 0.00 0.00 0.00 42 1013.9
20260503175904 10 181 3.2 3.2 0.00 0.00 0.00 42 1014.0
20260503175403 10 210 4.8 4.8 0.00 0.00 0.00 41 1014.1
20260503174858 10 60 1.6 1.6 0.00 0.00 0.00 42 1014.0
20260503174356 10 121 3.2 3.2 0.00 0.00 0.00 40 1014.2
20260503173851 10 288 3.2 4.8 0.00 0.00 0.00 42 1014.2
20260503173348 10 159 1.6 3.2 0.00 0.00 0.00 42 1014.0
20260503172844 10 204 4.8 9.7 0.00 0.00 0.00 42 1014.2
20260503172342 10 171 0.0 1.6 0.00 0.00 0.00 41 1014.2
20260503171838 10 216 8.0 11.3 0.00 0.00 0.00 40 1014.3
20260503171335 10 21 4.8 9.7 0.00 0.00 0.00 41 1014.2
20260503170832 10 85 3.2 4.8 0.00 0.00 0.00 40 1014.3
20260503170329 10 276 4.8 4.8 0.00 0.00 0.00 41 1014.5
20260503150721 10 189 1.6 1.6 0.00 0.00 0.00 44 1014.7
20260503150217 10 157 1.6 1.6 0.00 0.00 0.00 44 1014.6
20260503140142 9 119 3.2 3.2 0.00 0.00 0.00 54 1015.0
20260503131111 7 227 4.8 8.0 0.00 0.00 0.00 60 1015.3
20260503130609 7 101 3.2 3.2 0.00 0.00 0.00 61 1015.1
20260503130106 7 251 4.8 8.0 0.00 0.00 0.00 62 1015.2